| time (UTC) | temp F | wind direction | speed knots | gust knots | rain 1hr in | rain 24hr in | rain mn in | humidity % | barometer mb |
| 20260510131500 | 63 | 110 | 0.0 | 0.0 | 0.00 | 0.00 | 0.00 | 88 | 1016.7 |
| 20260510130021 | 61 | 110 | 0.0 | 0.0 | 0.00 | 0.00 | 0.00 | 90 | 1016.4 |
| 20260510124530 | 60 | 110 | 0.0 | 0.0 | 0.00 | 0.00 | 0.00 | 92 | 1016.4 |
| 20260510123027 | 59 | 110 | 0.0 | 0.0 | 0.00 | 0.00 | 0.00 | 91 | 1016.4 |
| 20260510121537 | 59 | 110 | 0.0 | 0.0 | 0.00 | 0.00 | 0.00 | 92 | 1016.3 |
| 20260510120049 | 59 | 110 | 0.0 | 0.0 | 0.00 | 0.00 | 0.00 | 92 | 1016.2 |
| 20260510114559 | 59 | 110 | 0.0 | 0.0 | 0.00 | 0.00 | 0.00 | 91 | 1016.2 |
| 20260510113021 | 59 | 110 | 0.0 | 0.0 | 0.00 | 0.00 | 0.00 | 92 | 1016.0 |
| 20260510111544 | 59 | 98 | 0.0 | 0.0 | 0.00 | 0.00 | 0.00 | 92 | 1016.0 |
| 20260510110045 | 58 | 160 | 0.0 | 0.0 | 0.00 | 0.00 | 0.00 | 92 | 1015.9 |
| 20260510104555 | 57 | 160 | 0.0 | 0.0 | 0.00 | 0.00 | 0.00 | 91 | 1015.5 |
| 20260510103053 | 57 | 160 | 0.0 | 0.0 | 0.00 | 0.00 | 0.00 | 90 | 1015.3 |
| 20260510101506 | 57 | 160 | 0.0 | 0.0 | 0.00 | 0.00 | 0.00 | 89 | 1014.9 |
| 20260510100018 | 57 | 160 | 0.0 | 0.0 | 0.00 | 0.00 | 0.00 | 88 | 1014.7 |
| 20260510094516 | 57 | 160 | 0.0 | 0.0 | 0.00 | 0.00 | 0.00 | 89 | 1014.7 |
| 20260510093048 | 57 | 160 | 0.0 | 0.0 | 0.00 | 0.00 | 0.00 | 90 | 1014.4 |
| 20260510091552 | 57 | 160 | 0.0 | 0.0 | 0.00 | 0.00 | 0.00 | 89 | 1014.3 |
| 20260510090054 | 57 | 160 | 0.0 | 0.0 | 0.00 | 0.00 | 0.00 | 89 | 1014.3 |
| 20260510084616 | 57 | 160 | 0.0 | 0.0 | 0.00 | 0.00 | 0.00 | 88 | 1014.6 |
| 20260510083020 | 57 | 160 | 0.0 | 0.0 | 0.00 | 0.00 | 0.00 | 88 | 1014.5 |
| 20260510081534 | 57 | 160 | 0.0 | 0.0 | 0.00 | 0.00 | 0.00 | 88 | 1014.3 |
| 20260510080007 | 58 | 160 | 0.0 | 0.0 | 0.00 | 0.00 | 0.00 | 87 | 1014.1 |
| 20260510074507 | 58 | 160 | 0.0 | 0.0 | 0.00 | 0.00 | 0.00 | 85 | 1013.7 |
| 20260510073007 | 59 | 160 | 0.0 | 0.0 | 0.00 | 0.00 | 0.00 | 84 | 1013.6 |
| 20260510071529 | 59 | 160 | 0.0 | 0.0 | 0.00 | 0.00 | 0.00 | 85 | 1013.6 |
| 20260510070037 | 59 | 160 | 0.0 | 0.0 | 0.00 | 0.00 | 0.00 | 83 | 1013.8 |
| 20260510064547 | 59 | 160 | 0.0 | 0.0 | 0.00 | 0.00 | 0.00 | 82 | 1014.1 |
| 20260510063034 | 60 | 160 | 0.0 | 0.0 | 0.00 | 0.00 | 0.00 | 81 | 1014.0 |
| 20260510061554 | 60 | 160 | 0.0 | 0.0 | 0.00 | 0.00 | 0.00 | 80 | 1014.1 |
| 20260510060053 | 60 | 160 | 0.0 | 0.0 | 0.00 | 0.00 | 0.00 | 81 | 1014.2 |
| 20260510054603 | 60 | 160 | 0.0 | 0.0 | 0.00 | 0.00 | 0.00 | 80 | 1014.3 |
| 20260510053021 | 60 | 160 | 0.0 | 0.0 | 0.00 | 0.00 | 0.00 | 80 | 1014.2 |
| 20260510051531 | 61 | 160 | 0.0 | 0.0 | 0.00 | 0.00 | 0.00 | 76 | 1014.0 |
| 20260510050042 | 61 | 160 | 0.0 | 0.0 | 0.00 | 0.00 | 0.00 | 75 | 1014.0 |
| 20260510044551 | 61 | 160 | 0.0 | 0.0 | 0.00 | 0.00 | 0.00 | 75 | 1013.6 |
| 20260510043113 | 61 | 160 | 0.0 | 0.0 | 0.00 | 0.00 | 0.00 | 75 | 1013.6 |
| 20260510041520 | 60 | 160 | 0.0 | 0.0 | 0.00 | 0.00 | 0.00 | 75 | 1013.3 |
| 20260510040015 | 61 | 160 | 0.0 | 0.0 | 0.00 | 0.00 | 0.00 | 75 | 1013.3 |
| 20260510034517 | 62 | 160 | 0.0 | 0.0 | 0.00 | 0.00 | 0.00 | 72 | 1013.3 |
| 20260510033034 | 63 | 160 | 0.0 | 0.0 | 0.00 | 0.00 | 0.00 | 72 | 1013.3 |
| 20260510031544 | 64 | 160 | 0.0 | 0.0 | 0.00 | 0.00 | 0.00 | 71 | 1013.0 |
| 20260510030052 | 64 | 159 | 0.0 | 0.0 | 0.00 | 0.00 | 0.00 | 72 | 1012.7 |
| 20260510024510 | 65 | 158 | 0.0 | 0.9 | 0.00 | 0.00 | 0.00 | 71 | 1012.5 |
| 20260510023023 | 66 | 210 | 0.0 | 0.0 | 0.00 | 0.00 | 0.00 | 66 | 1012.1 |
| 20260510021538 | 66 | 210 | 0.0 | 0.0 | 0.00 | 0.00 | 0.00 | 65 | 1012.0 |
| 20260510020048 | 67 | 210 | 0.0 | 0.0 | 0.00 | 0.00 | 0.00 | 65 | 1011.6 |
| 20260510014601 | 68 | 210 | 0.0 | 0.0 | 0.00 | 0.00 | 0.00 | 64 | 1011.7 |
| 20260510013009 | 69 | 210 | 0.0 | 0.0 | 0.00 | 0.00 | 0.00 | 64 | 1011.4 |
| 20260510011510 | 70 | 210 | 0.0 | 0.0 | 0.00 | 0.00 | 0.00 | 62 | 1011.4 |
| 20260510010010 | 71 | 210 | 0.0 | 0.0 | 0.00 | 0.00 | 0.00 | 59 | 1011.2 |
| 20260510004518 | 73 | 210 | 0.0 | 0.0 | 0.00 | 0.00 | 0.00 | 56 | 1011.0 |
| 20260510003032 | 75 | 176 | 0.0 | 0.0 | 0.00 | 0.00 | 0.00 | 50 | 1010.8 |
| 20260510001531 | 76 | 176 | 0.0 | 0.9 | 0.00 | 0.00 | 0.00 | 47 | 1010.7 |
| 20260510000039 | 77 | 165 | 0.0 | 0.0 | 0.00 | 0.00 | 0.00 | 46 | 1010.7 |
| 20260509234550 | 79 | 195 | 0.0 | 0.9 | 0.00 | 0.00 | 0.00 | 44 | 1010.6 |
| 20260509233006 | 80 | 239 | 0.0 | 0.9 | 0.00 | 0.00 | 0.00 | 42 | 1010.6 |
| 20260509231529 | 82 | 164 | 0.0 | 0.9 | 0.00 | 0.00 | 0.00 | 40 | 1010.6 |
| 20260509230042 | 83 | 217 | 0.0 | 1.7 | 0.00 | 0.00 | 0.00 | 36 | 1010.5 |
| 20260509224602 | 83 | 115 | 0.0 | 1.7 | 0.00 | 0.00 | 0.00 | 34 | 1010.6 |
| 20260509223046 | 84 | 179 | 0.0 | 1.7 | 0.00 | 0.00 | 0.00 | 42 | 1010.6 |
| 20260509221548 | 84 | 288 | 0.0 | 1.7 | 0.00 | 0.00 | 0.00 | 35 | 1010.6 |
| 20260509220057 | 84 | 220 | 0.0 | 2.6 | 0.00 | 0.00 | 0.00 | 36 | 1010.5 |
| 20260509214504 | 85 | 52 | 0.0 | 1.7 | 0.00 | 0.00 | 0.00 | 34 | 1010.5 |
| 20260509213005 | 84 | 231 | 0.0 | 2.6 | 0.00 | 0.00 | 0.00 | 33 | 1010.6 |
| 20260509211515 | 85 | 133 | 0.9 | 3.5 | 0.00 | 0.00 | 0.00 | 38 | 1010.6 |
| 20260509210028 | 84 | 161 | 0.0 | 4.3 | 0.00 | 0.00 | 0.00 | 35 | 1010.8 |
| 20260509204524 | 84 | 274 | 0.0 | 1.7 | 0.00 | 0.00 | 0.00 | 34 | 1010.9 |
| 20260509203033 | 84 | 257 | 0.0 | 1.7 | 0.00 | 0.00 | 0.00 | 33 | 1010.8 |
| 20260509201544 | 84 | 152 | 0.0 | 3.5 | 0.00 | 0.00 | 0.00 | 38 | 1011.3 |
| 20260509200107 | 84 | 86 | 0.0 | 1.7 | 0.00 | 0.00 | 0.00 | 36 | 1011.4 |
| 20260509194543 | 83 | 100 | 0.0 | 2.6 | 0.00 | 0.00 | 0.00 | 35 | 1011.5 |
| 20260509193045 | 84 | 267 | 0.0 | 1.7 | 0.00 | 0.00 | 0.00 | 30 | 1011.8 |
| 20260509191545 | 83 | 40 | 0.0 | 3.5 | 0.00 | 0.00 | 0.00 | 37 | 1011.9 |
| 20260509190057 | 83 | 65 | 0.9 | 3.5 | 0.00 | 0.00 | 0.00 | 32 | 1011.9 |
| 20260509184508 | 82 | 166 | 0.9 | 3.5 | 0.00 | 0.00 | 0.00 | 30 | 1011.9 |
| 20260509183029 | 83 | 70 | 0.0 | 4.3 | 0.00 | 0.00 | 0.00 | 38 | 1011.9 |
| 20260509181545 | 82 | 27 | 0.0 | 0.9 | 0.00 | 0.00 | 0.00 | 44 | 1011.9 |
| 20260509180110 | 81 | 326 | 0.0 | 2.6 | 0.00 | 0.00 | 0.00 | 39 | 1011.7 |
| 20260509174500 | 81 | 310 | 0.0 | 3.5 | 0.00 | 0.00 | 0.00 | 53 | 1011.9 |
| 20260509173019 | 80 | 161 | 0.0 | 3.5 | 0.00 | 0.00 | 0.00 | 48 | 1012.1 |
| 20260509171536 | 79 | 33 | 0.0 | 2.6 | 0.00 | 0.00 | 0.00 | 57 | 1012.3 |
| 20260509170058 | 78 | 87 | 0.9 | 3.5 | 0.00 | 0.00 | 0.00 | 57 | 1012.3 |
| 20260509164553 | 80 | 229 | 0.0 | 0.9 | 0.00 | 0.00 | 0.00 | 59 | 1012.3 |
| 20260509163111 | 78 | 104 | 0.9 | 2.6 | 0.00 | 0.00 | 0.00 | 63 | 1012.4 |
| 20260509161515 | 76 | 271 | 0.0 | 2.6 | 0.00 | 0.00 | 0.00 | 65 | 1012.4 |
| 20260509160024 | 75 | 1 | 0.0 | 2.6 | 0.00 | 0.00 | 0.00 | 63 | 1012.4 |
| 20260509154541 | 74 | 16 | 0.9 | 2.6 | 0.00 | 0.00 | 0.00 | 66 | 1012.4 |
| 20260509153045 | 73 | 89 | 0.0 | 0.9 | 0.00 | 0.00 | 0.00 | 68 | 1012.4 |
| 20260509151550 | 73 | 331 | 0.0 | 1.7 | 0.00 | 0.00 | 0.00 | 69 | 1012.3 |
| 20260509150011 | 71 | 68 | 0.0 | 1.7 | 0.00 | 0.00 | 0.00 | 76 | 1012.3 |
| 20260509144511 | 70 | 95 | 0.0 | 1.7 | 0.00 | 0.00 | 0.00 | 73 | 1012.5 |
| 20260509143046 | 69 | 80 | 0.0 | 1.7 | 0.00 | 0.00 | 0.00 | 74 | 1012.3 |
| 20260509141542 | 69 | 103 | 0.0 | 1.7 | 0.00 | 0.00 | 0.00 | 75 | 1012.3 |
| 20260509140047 | 69 | 41 | 0.0 | 0.9 | 0.00 | 0.00 | 0.00 | 75 | 1012.2 |
| 20260509134547 | 68 | 151 | 0.0 | 0.9 | 0.00 | 0.00 | 0.00 | 76 | 1012.2 |
| 20260509133052 | 66 | 160 | 0.0 | 0.9 | 0.00 | 0.00 | 0.00 | 80 | 1012.1 |